"Datum/tijd (MEZT)";"Astronomisch 1minuut standen";"meting 1minuut standen";"2-uur lopend gemiddelde opzet";"seiche"
2024-04-06 13:00;108;130;15;7
2024-04-06 13:01;109;129;14.885245901639;5.1147540983607
2024-04-06 13:02;109;130;14.790322580645;6.2096774193548
2024-04-06 13:03;110;129;14.714285714286;4.2857142857143
2024-04-06 13:04;110;132;14.625;7.375
2024-04-06 13:05;111;133;14.553846153846;7.4461538461538
2024-04-06 13:06;111;131;14.5;5.5
2024-04-06 13:07;112;131;14.432835820896;4.5671641791045
2024-04-06 13:08;112;129;14.352941176471;2.6470588235294
2024-04-06 13:09;112;132;14.275362318841;5.7246376811594
2024-04-06 13:10;113;131;14.171428571429;3.8285714285714
2024-04-06 13:11;113;129;14.070422535211;1.9295774647887
2024-04-06 13:12;113;133;13.986111111111;6.0138888888889
2024-04-06 13:13;114;132;13.890410958904;4.1095890410959
2024-04-06 13:14;114;131;13.824324324324;3.1756756756757
2024-04-06 13:15;114;131;13.76;3.24
2024-04-06 13:16;115;130;13.684210526316;1.3157894736842
2024-04-06 13:17;115;132;13.597402597403;3.4025974025974
2024-04-06 13:18;115;132;13.5;3.5
2024-04-06 13:19;115;132;13.430379746835;3.5696202531646
2024-04-06 13:20;115;132;13.3375;3.6625
2024-04-06 13:21;116;133;13.296296296296;3.7037037037037
2024-04-06 13:22;116;134;13.219512195122;4.780487804878
2024-04-06 13:23;116;132;13.156626506024;2.8433734939759
2024-04-06 13:24;116;134;13.107142857143;4.8928571428571
2024-04-06 13:25;116;130;13;1
2024-04-06 13:26;116;132;12.93023255814;3.0697674418605
2024-04-06 13:27;116;133;12.850574712644;4.1494252873563
2024-04-06 13:28;116;131;12.795454545455;2.2045454545455
2024-04-06 13:29;116;132;12.741573033708;3.2584269662921
2024-04-06 13:30;116;132;12.655555555556;3.3444444444444
2024-04-06 13:31;116;130;12.582417582418;1.4175824175824
2024-04-06 13:32;116;131;12.5;2.5
2024-04-06 13:33;116;132;12.430107526882;3.5698924731183
2024-04-06 13:34;116;131;12.351063829787;2.6489361702128
2024-04-06 13:35;116;131;12.284210526316;2.7157894736842
2024-04-06 13:36;116;128;12.21875;-0.21875
2024-04-06 13:37;116;129;12.144329896907;0.85567010309278
2024-04-06 13:38;116;129;12.071428571429;0.92857142857143
2024-04-06 13:39;116;129;12.010101010101;0.98989898989899
2024-04-06 13:40;116;130;11.94;2.06
2024-04-06 13:41;116;130;11.851485148515;2.1485148514851
2024-04-06 13:42;116;128;11.794117647059;0.20588235294118
2024-04-06 13:43;116;128;11.747572815534;0.25242718446602
2024-04-06 13:44;115;128;11.673076923077;1.3269230769231
2024-04-06 13:45;115;129;11.6;2.4
2024-04-06 13:46;115;125;11.528301886792;-1.5283018867925
2024-04-06 13:47;115;126;11.457943925234;-0.45794392523364
2024-04-06 13:48;115;124;11.407407407407;-2.4074074074074
2024-04-06 13:49;115;125;11.348623853211;-1.348623853211
2024-04-06 13:50;114;125;11.290909090909;-0.29090909090909
2024-04-06 13:51;114;123;11.234234234234;-2.2342342342342
2024-04-06 13:52;114;125;11.160714285714;-0.16071428571429
2024-04-06 13:53;114;124;11.097345132743;-1.0973451327434
2024-04-06 13:54;113;123;11.035087719298;-1.0350877192982
2024-04-06 13:55;113;122;10.95652173913;-1.9565217391304
2024-04-06 13:56;113;123;10.896551724138;-0.89655172413793
2024-04-06 13:57;113;124;10.837606837607;0.16239316239316
2024-04-06 13:58;112;121;10.771186440678;-1.771186440678
2024-04-06 13:59;112;123;10.714285714286;0.28571428571429
2024-04-06 14:00;112;120;10.65;-2.65
2024-04-06 14:01;112;121;10.483333333333;-1.4833333333333
2024-04-06 14:02;111;121;10.341666666667;-0.34166666666667
2024-04-06 14:03;111;120;10.191666666667;-1.1916666666667
2024-04-06 14:04;111;121;10.066666666667;-0.066666666666666
2024-04-06 14:05;110;121;9.9;1.1
2024-04-06 14:06;110;120;9.7416666666667;0.25833333333333
2024-04-06 14:07;110;119;9.6083333333333;-0.60833333333333
2024-04-06 14:08;109;118;9.4666666666667;-0.46666666666667
2024-04-06 14:09;109;116;9.3416666666667;-2.3416666666667
2024-04-06 14:10;109;116;9.2083333333333;-2.2083333333333
2024-04-06 14:11;108;116;9.0833333333333;-1.0833333333333
2024-04-06 14:12;108;115;8.975;-1.975
2024-04-06 14:13;108;117;8.8333333333333;0.16666666666667
2024-04-06 14:14;107;116;8.7083333333333;0.29166666666667
2024-04-06 14:15;107;115;8.575;-0.575
2024-04-06 14:16;107;114;8.4333333333333;-1.4333333333333
2024-04-06 14:17;106;112;8.325;-2.325
2024-04-06 14:18;106;114;8.2166666666667;-0.21666666666667
2024-04-06 14:19;106;112;8.0833333333333;-2.0833333333333
2024-04-06 14:20;105;115;7.9916666666667;2.0083333333333
2024-04-06 14:21;105;112;7.85;-0.85
2024-04-06 14:22;104;112;7.7166666666667;0.28333333333333
2024-04-06 14:23;104;113;7.5833333333333;1.4166666666667
2024-04-06 14:24;104;108;7.475;-3.475
2024-04-06 14:25;103;110;7.325;-0.325
2024-04-06 14:26;103;109;7.225;-1.225
2024-04-06 14:27;102;110;7.125;0.875
2024-04-06 14:28;102;110;7.0083333333333;0.99166666666667
2024-04-06 14:29;102;107;6.8916666666667;-1.8916666666667
2024-04-06 14:30;101;107;6.775;-0.775
2024-04-06 14:31;101;106;6.65;-1.65
2024-04-06 14:32;101;107;6.5583333333333;-0.55833333333333
2024-04-06 14:33;100;105;6.4416666666667;-1.4416666666667
2024-04-06 14:34;100;106;6.3166666666667;-0.31666666666667
2024-04-06 14:35;99;105;6.2;-0.2
2024-04-06 14:36;99;104;6.075;-1.075
2024-04-06 14:37;99;104;5.9833333333333;-0.98333333333333
2024-04-06 14:38;98;104;5.8916666666667;0.10833333333333
2024-04-06 14:39;98;103;5.775;-0.775
2024-04-06 14:40;97;100;5.6916666666667;-2.6916666666667
2024-04-06 14:41;97;103;5.5833333333333;0.41666666666667
2024-04-06 14:42;96;103;5.475;1.525
2024-04-06 14:43;96;100;5.3916666666667;-1.3916666666667
2024-04-06 14:44;96;100;5.3083333333333;-1.3083333333333
2024-04-06 14:45;95;99;5.2;-1.2
2024-04-06 14:46;95;99;5.1;-1.1
2024-04-06 14:47;94;100;5.0333333333333;0.96666666666667
2024-04-06 14:48;94;99;4.9583333333333;0.041666666666667
2024-04-06 14:49;93;98;4.8916666666667;0.10833333333333
2024-04-06 14:50;93;98;4.825;0.175
2024-04-06 14:51;93;96;4.7583333333333;-1.7583333333333
2024-04-06 14:52;92;96;4.7;-0.7
2024-04-06 14:53;92;96;4.6166666666667;-0.61666666666667
2024-04-06 14:54;91;93;4.5583333333333;-2.5583333333333
2024-04-06 14:55;91;95;4.4916666666667;-0.49166666666667
2024-04-06 14:56;90;94;4.4333333333333;-0.43333333333333
2024-04-06 14:57;90;93;4.3666666666667;-1.3666666666667
2024-04-06 14:58;90;94;4.275;-0.275
2024-04-06 14:59;89;92;4.2083333333333;-1.2083333333333
2024-04-06 15:00;89;91;4.1333333333333;-2.1333333333333
2024-04-06 15:01;88;91;4.0666666666667;-1.0666666666667
2024-04-06 15:02;88;91;3.9916666666667;-0.99166666666667
2024-04-06 15:03;87;91;3.925;0.075
2024-04-06 15:04;87;89;3.8666666666667;-1.8666666666667
2024-04-06 15:05;86;89;3.7666666666667;-0.76666666666667
2024-04-06 15:06;86;90;3.6833333333333;0.31666666666667
2024-04-06 15:07;85;87;3.5916666666667;-1.5916666666667
2024-04-06 15:08;85;87;3.5083333333333;-1.5083333333333
2024-04-06 15:09;84;88;3.4416666666667;0.55833333333333
2024-04-06 15:10;84;87;3.3833333333333;-0.38333333333333
2024-04-06 15:11;83;86;3.3333333333333;-0.33333333333333
2024-04-06 15:12;83;86;3.25;-0.25
2024-04-06 15:13;82;85;3.1916666666667;-0.19166666666667
2024-04-06 15:14;82;83;3.125;-2.125
2024-04-06 15:15;81;81;3.075;-3.075
2024-04-06 15:16;81;83;3.0166666666667;-1.0166666666667
2024-04-06 15:17;80;84;2.9583333333333;1.0416666666667
2024-04-06 15:18;80;81;2.9083333333333;-1.9083333333333
2024-04-06 15:19;79;85;2.8416666666667;3.1583333333333
2024-04-06 15:20;79;79;2.8083333333333;-2.8083333333333
2024-04-06 15:21;78;79;2.7333333333333;-1.7333333333333
2024-04-06 15:22;78;80;2.6833333333333;-0.68333333333333
2024-04-06 15:23;77;80;2.6333333333333;0.36666666666667
2024-04-06 15:24;77;77;2.5583333333333;-2.5583333333333
2024-04-06 15:25;76;78;2.5416666666667;-0.54166666666667
2024-04-06 15:26;76;80;2.475;1.525
2024-04-06 15:27;75;78;2.4333333333333;0.56666666666667
2024-04-06 15:28;75;76;2.3666666666667;-1.3666666666667
2024-04-06 15:29;74;76;2.3083333333333;-0.30833333333333
2024-04-06 15:30;74;75;2.275;-1.275
2024-04-06 15:31;73;76;2.225;0.775
2024-04-06 15:32;72;73;2.1916666666667;-1.1916666666667
2024-04-06 15:33;72;73;2.1333333333333;-1.1333333333333
2024-04-06 15:34;71;72;2.0833333333333;-1.0833333333333
2024-04-06 15:35;71;71;2.025;-2.025
2024-04-06 15:36;70;71;1.9666666666667;-0.96666666666667
2024-04-06 15:37;69;71;1.9166666666667;0.083333333333333
2024-04-06 15:38;69;68;1.875;-2.875
2024-04-06 15:39;68;71;1.825;1.175
2024-04-06 15:40;68;69;1.775;-0.775
2024-04-06 15:41;67;68;1.7416666666667;-0.74166666666667
2024-04-06 15:42;66;68;1.6916666666667;0.30833333333333
2024-04-06 15:43;66;68;1.625;0.375
2024-04-06 15:44;65;65;1.5833333333333;-1.5833333333333
2024-04-06 15:45;65;67;1.5666666666667;0.43333333333333
2024-04-06 15:46;64;66;1.55;0.45
2024-04-06 15:47;63;65;1.525;0.475
2024-04-06 15:48;63;64;1.4583333333333;-0.45833333333333
2024-04-06 15:49;62;64;1.425;0.575
2024-04-06 15:50;61;64;1.3833333333333;1.6166666666667
2024-04-06 15:51;61;63;1.3416666666667;0.65833333333333
2024-04-06 15:52;60;61;1.325;-0.325
2024-04-06 15:53;59;62;1.2916666666667;1.7083333333333
2024-04-06 15:54;59;61;1.2666666666667;0.73333333333333
2024-04-06 15:55;58;60;1.275;0.725
2024-04-06 15:56;57;59;1.25;0.75
2024-04-06 15:57;57;57;1.2333333333333;-1.2333333333333
2024-04-06 15:58;56;57;1.225;-0.225
2024-04-06 15:59;55;57;1.1833333333333;0.81666666666667
2024-04-06 16:00;55;55;1.1583333333333;-1.1583333333333
2024-04-06 16:01;54;54;1.1583333333333;-1.1583333333333
2024-04-06 16:02;53;55;1.1416666666667;0.85833333333333
2024-04-06 16:03;52;54;1.1166666666667;0.88333333333333
2024-04-06 16:04;52;50;1.1;-3.1
2024-04-06 16:05;51;52;1.1;-0.1
2024-04-06 16:06;50;49;1.0833333333333;-2.0833333333333
2024-04-06 16:07;50;49;1.0583333333333;-2.0583333333333
2024-04-06 16:08;49;50;1.05;-0.05
2024-04-06 16:09;48;48;1.05;-1.05
2024-04-06 16:10;47;48;1.0416666666667;-0.041666666666667
2024-04-06 16:11;47;45;1.0333333333333;-3.0333333333333
2024-04-06 16:12;46;46;1.025;-1.025
2024-04-06 16:13;45;46;1.025;-0.025
2024-04-06 16:14;44;47;1.0083333333333;1.9916666666667
2024-04-06 16:15;44;45;1.0166666666667;-0.016666666666667
2024-04-06 16:16;43;43;1.0333333333333;-1.0333333333333
2024-04-06 16:17;42;42;1.0416666666667;-1.0416666666667
2024-04-06 16:18;41;41;1.025;-1.025
2024-04-06 16:19;40;42;1.0416666666667;0.95833333333333
2024-04-06 16:20;40;41;1.0166666666667;-0.016666666666667
2024-04-06 16:21;39;40;1.0333333333333;-0.033333333333333
2024-04-06 16:22;38;40;1.05;0.95
2024-04-06 16:23;37;37;1.0666666666667;-1.0666666666667
2024-04-06 16:24;36;38;1.075;0.925
2024-04-06 16:25;36;35;1.1166666666667;-2.1166666666667
2024-04-06 16:26;35;36;1.1416666666667;-0.14166666666667
2024-04-06 16:27;34;34;1.15;-1.15
2024-04-06 16:28;33;34;1.1583333333333;-0.15833333333333
2024-04-06 16:29;32;33;1.1833333333333;-0.18333333333333
2024-04-06 16:30;31;31;1.2083333333333;-1.2083333333333
2024-04-06 16:31;31;32;1.2416666666667;-0.24166666666667
2024-04-06 16:32;30;29;1.2583333333333;-2.2583333333333
2024-04-06 16:33;29;28;1.3;-2.3
2024-04-06 16:34;28;27;1.3416666666667;-2.3416666666667
2024-04-06 16:35;27;26;1.375;-2.375
2024-04-06 16:36;26;25;1.425;-2.425
2024-04-06 16:37;25;25;1.4583333333333;-1.4583333333333
2024-04-06 16:38;25;25;1.4833333333333;-1.4833333333333
2024-04-06 16:39;24;23;1.5416666666667;-2.5416666666667
2024-04-06 16:40;23;22;1.55;-2.55
2024-04-06 16:41;22;22;1.5916666666667;-1.5916666666667
2024-04-06 16:42;21;20;1.6333333333333;-2.6333333333333
2024-04-06 16:43;20;19;1.6583333333333;-2.6583333333333
2024-04-06 16:44;19;21;1.6916666666667;0.30833333333333
2024-04-06 16:45;18;20;1.7333333333333;0.26666666666667
2024-04-06 16:46;17;18;1.775;-0.775
2024-04-06 16:47;17;15;1.8083333333333;-3.8083333333333
2024-04-06 16:48;16;17;1.8416666666667;-0.84166666666667
2024-04-06 16:49;15;15;1.8833333333333;-1.8833333333333
2024-04-06 16:50;14;14;1.9166666666667;-1.9166666666667
2024-04-06 16:51;13;14;1.9416666666667;-0.94166666666667
2024-04-06 16:52;12;12;1.975;-1.975
2024-04-06 16:53;11;12;2.0166666666667;-1.0166666666667
2024-04-06 16:54;10;13;2.05;0.95
2024-04-06 16:55;9;10;2.0833333333333;-1.0833333333333
2024-04-06 16:56;8;10;2.1333333333333;-0.13333333333333
2024-04-06 16:57;7;9;2.1583333333333;-0.15833333333333
2024-04-06 16:58;7;6;2.2083333333333;-3.2083333333333
2024-04-06 16:59;6;6;2.2416666666667;-2.2416666666667
2024-04-06 17:00;5;7;2.2583333333333;-0.25833333333333
2024-04-06 17:01;4;5;2.3;-1.3
2024-04-06 17:02;3;3;2.3333333333333;-2.3333333333333
2024-04-06 17:03;2;4;2.35;-0.35
2024-04-06 17:04;1;3;2.3833333333333;-0.38333333333333
2024-04-06 17:05;0;1;2.4333333333333;-1.4333333333333
2024-04-06 17:06;-1;0;2.475;-1.475
2024-04-06 17:07;-2;-1;2.5333333333333;-1.5333333333333
2024-04-06 17:08;-3;-1;2.5833333333333;-0.58333333333333
2024-04-06 17:09;-4;-1;2.6166666666667;0.38333333333333
2024-04-06 17:10;-5;-3;2.6666666666667;-0.66666666666667
2024-04-06 17:11;-6;-4;2.7;-0.7
2024-04-06 17:12;-7;-4;2.7583333333333;0.24166666666667
2024-04-06 17:13;-7;-6;2.8;-1.8
2024-04-06 17:14;-8;-6;2.8583333333333;-0.85833333333333
2024-04-06 17:15;-9;-7;2.9;-0.9
2024-04-06 17:16;-10;-7;2.9416666666667;0.058333333333333
2024-04-06 17:17;-11;-9;3;-1
2024-04-06 17:18;-12;-9;3.05;-0.05
2024-04-06 17:19;-13;-10;3.1083333333333;-0.10833333333333
2024-04-06 17:20;-14;-12;3.1583333333333;-1.1583333333333
2024-04-06 17:21;-15;-12;3.2083333333333;-0.20833333333333
2024-04-06 17:22;-16;-12;3.275;0.725
2024-04-06 17:23;-17;-13;3.3083333333333;0.69166666666667
2024-04-06 17:24;-18;-13;3.375;1.625
2024-04-06 17:25;-19;-14;3.4083333333333;1.5916666666667
2024-04-06 17:26;-20;-15;3.4833333333333;1.5166666666667
2024-04-06 17:27;-20;-16;3.5416666666667;0.45833333333333
2024-04-06 17:28;-21;-17;3.6;0.4
2024-04-06 17:29;-22;-17;3.6333333333333;1.3666666666667
2024-04-06 17:30;-23;-18;3.6833333333333;1.3166666666667
2024-04-06 17:31;-24;-19;3.7416666666667;1.2583333333333
2024-04-06 17:32;-25;-19;3.8;2.2
2024-04-06 17:33;-26;-20;3.8583333333333;2.1416666666667
2024-04-06 17:34;-27;-22;3.9166666666667;1.0833333333333
2024-04-06 17:35;-28;-22;3.975;2.025
2024-04-06 17:36;-28;-23;4.025;0.975
2024-04-06 17:37;-29;-24;4.0916666666667;0.90833333333333
2024-04-06 17:38;-30;-24;4.1416666666667;1.8583333333333
2024-04-06 17:39;-31;-27;4.1916666666667;-0.19166666666667
2024-04-06 17:40;-32;-26;4.2416666666667;1.7583333333333
2024-04-06 17:41;-33;-27;4.2833333333333;1.7166666666667
2024-04-06 17:42;-33;-28;4.325;0.675
2024-04-06 17:43;-34;-28;4.3666666666667;1.6333333333333
2024-04-06 17:44;-35;-30;4.4083333333333;0.59166666666667
2024-04-06 17:45;-36;-29;4.425;2.575
2024-04-06 17:46;-37;-31;4.4333333333333;1.5666666666667
2024-04-06 17:47;-38;-32;4.4666666666667;1.5333333333333
2024-04-06 17:48;-38;-32;4.5166666666667;1.4833333333333
2024-04-06 17:49;-39;-33;4.55;1.45
2024-04-06 17:50;-40;-34;4.5833333333333;1.4166666666667
2024-04-06 17:51;-41;-35;4.625;1.375
2024-04-06 17:52;-41;-35;4.65;1.35
2024-04-06 17:53;-42;-35;4.6833333333333;2.3166666666667
2024-04-06 17:54;-43;-37;4.6916666666667;1.3083333333333
2024-04-06 17:55;-44;-36;4.6916666666667;3.3083333333333
2024-04-06 17:56;-44;-39;4.7;0.3
2024-04-06 17:57;-45;-39;4.7166666666667;1.2833333333333
2024-04-06 17:58;-46;-41;4.725;0.275
2024-04-06 17:59;-46;-42;4.7583333333333;-0.75833333333333
2024-04-06 18:00;-47;-42;4.7833333333333;0.21666666666667
2024-04-06 18:01;-48;-44;4.8083333333333;-0.80833333333333
2024-04-06 18:02;-48;-44;4.8333333333333;-0.83333333333333
2024-04-06 18:03;-49;-43;4.8666666666667;1.1333333333333
2024-04-06 18:04;-50;-46;4.875;-0.875
2024-04-06 18:05;-50;-44;4.8833333333333;1.1166666666667
2024-04-06 18:06;-51;-45;4.9;1.1
2024-04-06 18:07;-52;-47;4.925;0.075
2024-04-06 18:08;-52;-47;4.9416666666667;0.058333333333334
2024-04-06 18:09;-53;-47;4.9416666666667;1.0583333333333
2024-04-06 18:10;-53;-48;4.9333333333333;0.066666666666666
2024-04-06 18:11;-54;-49;4.9416666666667;0.058333333333334
2024-04-06 18:12;-54;-49;4.95;0.05
2024-04-06 18:13;-55;-47;4.9416666666667;3.0583333333333
2024-04-06 18:14;-56;-48;4.95;3.05
2024-04-06 18:15;-56;-50;4.95;1.05
2024-04-06 18:16;-57;-50;4.95;2.05
2024-04-06 18:17;-57;-51;4.9416666666667;1.0583333333333
2024-04-06 18:18;-58;-51;4.925;2.075
2024-04-06 18:19;-58;-50;4.9083333333333;3.0916666666667
2024-04-06 18:20;-58;-51;4.8916666666667;2.1083333333333
2024-04-06 18:21;-59;-50;4.8916666666667;4.1083333333333
2024-04-06 18:22;-59;-53;4.8833333333333;1.1166666666667
2024-04-06 18:23;-60;-52;4.8583333333333;3.1416666666667
2024-04-06 18:24;-60;-54;4.8416666666667;1.1583333333333
2024-04-06 18:25;-61;-53;4.8166666666667;3.1833333333333
2024-04-06 18:26;-61;-53;4.7833333333333;3.2166666666667
2024-04-06 18:27;-61;-54;4.75;2.25
2024-04-06 18:28;-62;-57;4.725;0.275
2024-04-06 18:29;-62;-55;4.7;2.3
2024-04-06 18:30;-62;-55;4.6666666666667;2.3333333333333
2024-04-06 18:31;-63;-55;4.625;3.375
2024-04-06 18:32;-63;-57;4.5833333333333;1.4166666666667
2024-04-06 18:33;-63;-57;4.525;1.475
2024-04-06 18:34;-64;-58;4.475;1.525
2024-04-06 18:35;-64;-59;4.4333333333333;0.56666666666667
2024-04-06 18:36;-64;-57;4.3916666666667;2.6083333333333
2024-04-06 18:37;-65;-59;4.325;1.675
2024-04-06 18:38;-65;-59;4.2833333333333;1.7166666666667
2024-04-06 18:39;-65;-60;4.2333333333333;0.76666666666667
2024-04-06 18:40;-65;-61;4.1916666666667;-0.19166666666667
2024-04-06 18:41;-65;-60;4.125;0.875
2024-04-06 18:42;-66;-62;4.0666666666667;-0.066666666666666
2024-04-06 18:43;-66;-62;4.0333333333333;-0.033333333333333
2024-04-06 18:44;-66;-62;3.975;0.025
2024-04-06 18:45;-66;-63;3.925;-0.925
2024-04-06 18:46;-66;-61;3.85;1.15
2024-04-06 18:47;-67;-63;3.775;0.225
2024-04-06 18:48;-67;-62;3.7083333333333;1.2916666666667
2024-04-06 18:49;-67;-63;3.65;0.35
2024-04-06 18:50;-67;-62;3.5916666666667;1.4083333333333
2024-04-06 18:51;-67;-63;3.525;0.475
2024-04-06 18:52;-67;-63;3.4583333333333;0.54166666666667
2024-04-06 18:53;-67;-65;3.3833333333333;-1.3833333333333
2024-04-06 18:54;-67;-64;3.3166666666667;-0.31666666666667
2024-04-06 18:55;-67;-65;3.25;-1.25
2024-04-06 18:56;-68;-64;3.1666666666667;0.83333333333333
2024-04-06 18:57;-68;-65;3.1;-0.1
2024-04-06 18:58;-68;-65;3.0166666666667;-0.016666666666667
2024-04-06 18:59;-68;-65;2.9416666666667;0.058333333333333
2024-04-06 19:00;-68;-63;2.875;2.125
2024-04-06 19:01;-68;-64;2.8083333333333;1.1916666666667
2024-04-06 19:02;-68;-64;2.75;1.25
2024-04-06 19:03;-68;-65;2.6833333333333;0.31666666666667
2024-04-06 19:04;-68;-65;2.6083333333333;0.39166666666667
2024-04-06 19:05;-68;-65;2.5416666666667;0.45833333333333
2024-04-06 19:06;-68;-64;2.4583333333333;1.5416666666667
2024-04-06 19:07;-68;-65;2.3666666666667;0.63333333333333
2024-04-06 19:08;-68;-66;2.3;-0.3
2024-04-06 19:09;-68;-66;2.225;-0.225
2024-04-06 19:10;-68;-65;2.1416666666667;0.85833333333333
2024-04-06 19:11;-68;-65;2.0666666666667;0.93333333333333
2024-04-06 19:12;-68;-66;1.9916666666667;0.0083333333333333
2024-04-06 19:13;-68;-66;1.9083333333333;0.091666666666667
2024-04-06 19:14;-68;-66;1.8;0.2
2024-04-06 19:15;-68;-66;1.7083333333333;0.29166666666667
2024-04-06 19:16;-67;-65;1.625;0.375
2024-04-06 19:17;-67;-67;1.5166666666667;-1.5166666666667
2024-04-06 19:18;-67;-66;1.425;-0.425
2024-04-06 19:19;-67;-66;1.3333333333333;-0.33333333333333
2024-04-06 19:20;-67;-65;1.225;0.775
2024-04-06 19:21;-67;-65;1.125;0.875
2024-04-06 19:22;-67;-66;1.0083333333333;-0.0083333333333333
2024-04-06 19:23;-67;-65;0.90833333333333;1.0916666666667
2024-04-06 19:24;-67;-65;0.79166666666667;1.2083333333333
2024-04-06 19:25;-67;-66;0.7;0.3
2024-04-06 19:26;-67;-66;0.59166666666667;0.40833333333333
2024-04-06 19:27;-66;-65;0.475;0.525
2024-04-06 19:28;-66;-65;0.36666666666667;0.63333333333333
2024-04-06 19:29;-66;-65;0.275;0.725
2024-04-06 19:30;-66;-66;0.15833333333333;-0.15833333333333
2024-04-06 19:31;-66;-66;0.033333333333333;-0.033333333333333
2024-04-06 19:32;-66;-67;-0.083333333333333;-0.91666666666667
2024-04-06 19:33;-66;-66;-0.18333333333333;0.18333333333333
2024-04-06 19:34;-66;-66;-0.3;0.3
2024-04-06 19:35;-66;-65;-0.4;1.4
2024-04-06 19:36;-65;-68;-0.49166666666667;-2.5083333333333
2024-04-06 19:37;-65;-65;-0.60833333333333;0.60833333333333
2024-04-06 19:38;-65;-65;-0.70833333333333;0.70833333333333
2024-04-06 19:39;-65;-66;-0.80833333333333;-0.19166666666667
2024-04-06 19:40;-65;-67;-0.90833333333333;-1.0916666666667
2024-04-06 19:41;-65;-66;-0.99166666666667;-0.0083333333333333
2024-04-06 19:42;-65;-64;-1.0833333333333;2.0833333333333
2024-04-06 19:43;-64;-65;-1.1916666666667;0.19166666666667
2024-04-06 19:44;-64;-65;-1.2916666666667;0.29166666666667
2024-04-06 19:45;-64;-66;-1.4;-0.6
2024-04-06 19:46;-64;-67;-1.4916666666667;-1.5083333333333
2024-04-06 19:47;-64;-66;-1.6083333333333;-0.39166666666667
2024-04-06 19:48;-64;-65;-1.7083333333333;0.70833333333333
2024-04-06 19:49;-64;-65;-1.8166666666667;0.81666666666667
2024-04-06 19:50;-63;-65;-1.9166666666667;-0.083333333333333
2024-04-06 19:51;-63;-65;-2.0166666666667;0.016666666666667
2024-04-06 19:52;-63;-66;-2.1166666666667;-0.88333333333333
2024-04-06 19:53;-63;-64;-2.2166666666667;1.2166666666667
2024-04-06 19:54;-63;-65;-2.2916666666667;0.29166666666667
2024-04-06 19:55;-63;-65;-2.3833333333333;0.38333333333333
2024-04-06 19:56;-63;-66;-2.4583333333333;-0.54166666666667
2024-04-06 19:57;-63;-67;-2.55;-1.45
2024-04-06 19:58;-62;-66;-2.6333333333333;-1.3666666666667
2024-04-06 19:59;-62;-66;-2.7166666666667;-1.2833333333333
2024-04-06 20:00;-62;-65;-2.8;-0.2
2024-04-06 20:01;-62;-65;-2.9;-0.1
2024-04-06 20:02;-62;-66;-2.9916666666667;-1.0083333333333
2024-04-06 20:03;-62;-65;-3.0666666666667;0.066666666666667
2024-04-06 20:04;-62;-66;-3.15;-0.85
2024-04-06 20:05;-62;-66;-3.2416666666667;-0.75833333333333
2024-04-06 20:06;-61;-66;-3.325;-1.675
2024-04-06 20:07;-61;-64;-3.425;0.425
2024-04-06 20:08;-61;-65;-3.5083333333333;-0.49166666666667
2024-04-06 20:09;-61;-65;-3.5833333333333;-0.41666666666667
2024-04-06 20:10;-61;-65;-3.65;-0.35
2024-04-06 20:11;-61;-65;-3.7416666666667;-0.25833333333333
2024-04-06 20:12;-61;-66;-3.8166666666667;-1.1833333333333
2024-04-06 20:13;-61;-66;-3.9;-1.1
2024-04-06 20:14;-61;-64;-3.975;0.975
2024-04-06 20:15;-60;-64;-4.05;0.05
2024-04-06 20:16;-60;-66;-4.1166666666667;-1.8833333333333
2024-04-06 20:17;-60;-65;-4.1833333333333;-0.81666666666667
2024-04-06 20:18;-60;-64;-4.2416666666667;0.24166666666667
2024-04-06 20:19;-60;-65;-4.325;-0.675
2024-04-06 20:20;-60;-65;-4.4083333333333;-0.59166666666667
2024-04-06 20:21;-60;-65;-4.4916666666667;-0.50833333333333
2024-04-06 20:22;-60;-66;-4.575;-1.425
2024-04-06 20:23;-60;-66;-4.65;-1.35
2024-04-06 20:24;-60;-65;-4.7333333333333;-0.26666666666667
2024-04-06 20:25;-60;-65;-4.8083333333333;-0.19166666666667
2024-04-06 20:26;-59;-65;-4.8833333333333;-1.1166666666667
2024-04-06 20:27;-59;-65;-4.9583333333333;-1.0416666666667
2024-04-06 20:28;-59;-65;-5.0166666666667;-0.98333333333333
2024-04-06 20:29;-59;-66;-5.0916666666667;-1.9083333333333
2024-04-06 20:30;-59;-67;-5.1666666666667;-2.8333333333333
2024-04-06 20:31;-59;-65;-5.225;-0.775
2024-04-06 20:32;-59;-65;-5.2916666666667;-0.70833333333333
2024-04-06 20:33;-59;-67;-5.3333333333333;-2.6666666666667
2024-04-06 20:34;-59;-65;-5.375;-0.625
2024-04-06 20:35;-59;-65;-5.4333333333333;-0.56666666666667
2024-04-06 20:36;-59;-66;-5.5;-1.5
2024-04-06 20:37;-59;-65;-5.5333333333333;-0.46666666666667
2024-04-06 20:38;-59;-65;-5.5916666666667;-0.40833333333333
2024-04-06 20:39;-59;-66;-5.6416666666667;-1.3583333333333
2024-04-06 20:40;-59;-65;-5.6916666666667;-0.30833333333333
2024-04-06 20:41;-58;-64;-5.7333333333333;-0.26666666666667